Theta_e
299 292 290 290 292 293 295 294 292 292 292 291 290 290 288 288 287 288 289 290 291 290 289 289 290 291 293 292 292 293 293 292 291 292 292 292 292 294 295 297 300 303 307 310 313 316 318 320 322 323 323 323 323 324 324 323 324 325 326 325 325 326 327 328 327 326 327 326 325 325 327 327 326 325 322 324 324 326 330 330 330 328 328 328 327 327
297 291 291 294 296 296 295 295 293 292 292 290 289 287 287 288 287 289 291 292 292 291 289 289 288 290 291 290 290 290 291 293 293 292 292 293 293 293 295 296 298 303 304 304 307 310 313 318 319 320 321 320 320 321 323 323 324 325 325 325 326 326 326 328 329 328 327 328 328 327 327 327 325 323 322 323 322 325 324 325 326 326 327 327 328 326
291 289 293 295 297 297 296 295 293 291 290 289 287 288 286 286 288 289 290 291 291 291 288 286 289 291 292 292 292 289 291 293 294 294 295 294 294 293 293 295 297 298 300 300 305 308 313 316 317 318 319 321 322 323 323 324 324 324 324 325 325 326 326 327 328 328 327 328 327 327 322 325 318 319 323 322 323 322 324 324 324 324 325 325 324 324
286 290 294 296 297 295 294 294 292 291 290 288 287 285 285 287 287 285 288 289 291 289 287 287 286 289 291 291 291 291 291 293 294 294 294 294 294 294 294 294 297 298 299 299 300 304 310 314 317 317 318 320 321 321 322 323 323 325 324 325 325 325 326 326 327 325 328 327 322 320 317 320 323 321 319 318 317 320 320 322 322 324 325 325 324 324
289 292 296 297 296 294 292 293 291 289 288 289 289 286 285 287 288 287 287 289 290 290 287 285 286 286 287 289 290 292 293 292 293 293 293 293 293 294 294 293 296 298 299 299 299 300 306 310 314 316 318 319 319 320 321 322 324 326 324 325 325 325 325 326 325 325 325 321 318 316 315 315 316 315 316 315 318 318 317 318 318 322 322 324 324 324
291 293 296 294 294 293 292 290 291 290 287 288 289 289 288 289 288 287 289 289 287 286 288 289 282 281 282 286 290 293 290 290 292 292 293 294 295 293 293 295 295 296 297 300 300 300 303 310 313 315 315 317 319 320 321 323 324 325 325 325 325 325 325 325 324 324 323 322 322 319 319 317 315 318 315 319 321 318 318 321 317 316 320 322 323 323
292 293 293 292 292 292 291 290 292 291 288 286 288 290 290 290 289 287 286 287 281 281 286 287 283 277 281 284 288 290 289 290 289 290 293 294 294 293 294 296 295 296 296 296 298 299 300 306 310 313 314 316 318 320 320 321 322 323 324 324 324 325 325 325 323 322 321 321 322 322 322 321 319 319 316 311 312 317 315 314 316 319 316 320 322 322
292 289 291 292 291 290 289 288 291 291 288 285 291 291 291 290 289 287 288 288 281 284 287 287 284 280 282 286 285 285 286 288 288 289 290 293 294 294 295 295 295 296 295 296 298 299 299 304 309 312 314 315 318 319 317 318 319 321 321 322 322 323 322 323 321 321 322 323 321 320 320 319 318 318 317 311 311 311 311 314 315 314 316 318 321 323
292 288 289 289 289 288 288 290 293 292 289 288 293 292 291 291 290 289 288 285 284 284 281 281 285 282 277 281 284 284 286 287 287 288 290 292 293 294 295 295 294 295 295 295 297 299 299 301 306 310 312 315 315 314 314 316 318 319 319 318 318 320 320 319 319 320 320 321 321 321 319 317 315 315 314 308 306 311 308 313 310 310 311 312 316 319
290 292 291 291 290 287 289 291 293 293 289 291 293 294 292 291 289 289 285 285 285 281 279 281 282 278 278 279 282 282 284 286 288 289 290 291 293 294 293 293 294 293 293 294 296 298 298 300 304 307 308 308 310 306 307 307 308 312 314 315 316 318 318 318 318 319 319 319 318 319 317 317 313 310 307 306 307 309 306 309 307 308 309 308 311 312
291 292 296 291 290 291 291 291 294 293 293 295 294 292 290 286 286 283 283 282 282 277 279 281 281 280 277 281 285 285 285 288 291 289 288 289 290 291 292 293 294 294 294 294 294 295 296 295 297 297 301 302 298 297 299 303 308 310 312 314 315 317 316 315 317 317 317 317 317 319 317 317 315 310 310 307 304 304 305 306 305 304 304 305 308 309
289 291 291 291 292 292 292 291 292 293 294 294 290 286 289 287 283 283 281 282 277 274 276 278 280 280 276 277 281 285 284 284 288 289 291 292 291 291 291 291 292 293 293 294 294 294 294 296 296 295 298 299 299 297 298 300 303 307 310 312 314 311 312 312 315 316 315 315 316 316 316 316 316 312 311 311 309 307 307 304 306 305 303 303 303 304
287 287 289 291 293 292 291 290 290 293 293 292 288 288 284 278 280 277 280 277 275 275 279 278 279 281 281 282 284 284 286 288 285 288 291 291 290 289 290 292 293 293 294 296 295 294 294 297 297 297 298 298 298 299 299 300 302 305 307 310 312 311 307 311 312 314 313 314 314 315 314 314 312 311 311 311 309 304 307 304 304 304 305 303 306 305
284 285 289 290 292 292 293 288 284 286 289 289 287 284 282 276 275 274 272 272 271 276 277 279 281 279 279 282 290 291 294 293 290 288 288 289 290 292 293 292 292 293 295 296 295 295 295 296 296 296 298 299 298 297 298 298 300 302 305 307 311 310 305 307 310 312 312 313 312 311 311 309 309 309 310 308 309 304 304 305 305 304 302 304 305 306
280 280 286 288 286 292 291 290 290 288 288 289 289 288 283 280 274 272 272 275 277 277 276 278 277 274 277 283 284 289 291 289 287 288 288 289 291 291 291 291 291 291 291 291 293 295 296 296 295 296 297 297 298 297 297 298 299 300 303 304 307 306 304 307 309 309 311 308 307 306 307 307 307 308 306 305 305 305 304 303 305 304 303 304 304 306
283 282 286 290 290 290 291 293 293 292 290 289 288 288 284 284 283 279 278 277 274 273 275 276 276 277 282 283 286 287 287 289 288 290 291 292 292 291 292 292 293 292 292 291 292 293 294 295 294 295 296 297 298 298 297 298 299 300 301 302 305 307 305 305 305 307 308 306 307 306 307 306 305 304 305 304 303 304 305 305 304 303 303 304 305 305
282 281 286 288 290 289 290 291 293 293 284 287 287 285 285 288 285 279 278 279 278 275 274 274 277 280 280 287 289 284 287 289 289 290 290 291 291 291 292 293 292 292 292 291 293 293 294 292 293 296 296 297 297 298 299 300 300 300 300 302 303 304 303 304 305 306 306 306 307 306 307 306 306 308 308 308 307 305 306 307 307 306 305 306 307 306
283 280 285 286 287 290 288 289 292 289 292 288 283 287 289 291 288 283 278 273 271 273 274 274 277 277 278 279 283 284 286 287 287 288 289 290 290 290 292 292 292 292 293 292 292 292 294 295 296 296 297 298 299 299 298 299 299 300 302 303 304 303 304 302 304 305 306 307 307 306 306 306 307 307 306 307 306 306 306 305 304 304 304 304 302 301
287 280 285 286 286 288 289 292 291 291 291 289 288 293 288 281 281 282 279 273 271 269 268 273 275 275 277 281 281 283 284 288 288 287 287 289 290 291 291 290 289 289 290 291 292 292 293 294 295 296 297 296 297 298 298 299 300 300 300 302 305 305 305 304 304 304 305 307 308 308 307 307 307 307 308 306 304 303 303 302 302 303 300 296 293 295
287 280 281 285 286 288 288 288 284 285 289 291 289 288 289 287 284 280 281 279 277 272 270 271 274 277 280 279 282 289 288 288 288 286 289 291 292 292 291 292 291 291 292 292 293 293 293 294 294 295 296 296 297 297 298 299 300 301 301 301 302 302 302 303 304 305 306 305 308 307 306 307 307 307 307 304 302 302 301 298 299 298 296 294 292 293
284 283 278 283 287 286 283 284 284 286 284 285 285 283 285 285 286 285 283 279 279 272 268 269 270 273 279 282 284 288 290 289 288 289 290 290 290 291 291 292 291 292 293 293 293 293 293 293 293 293 294 294 293 294 296 299 301 300 300 301 301 303 302 303 302 305 305 305 308 307 307 305 304 302 302 301 300 299 296 294 294 294 293 290 290 288
284 283 280 282 283 280 282 285 286 289 291 288 285 284 286 282 281 279 279 280 274 276 273 267 273 275 282 284 287 288 288 286 286 289 290 290 290 291 292 292 292 293 293 292 292 292 292 292 292 292 292 291 293 293 295 297 298 298 300 300 300 302 302 301 302 305 305 305 306 305 303 302 300 300 299 298 296 294 292 290 290 289 289 290 286 288
286 283 283 279 282 285 285 288 288 288 285 287 289 288 289 286 284 279 277 278 278 277 273 271 272 274 281 283 284 285 285 286 286 286 288 289 289 290 292 293 292 293 294 293 293 292 292 291 292 292 292 293 293 293 292 294 298 298 297 297 298 302 300 301 302 302 303 303 302 300 298 296 295 294 293 292 290 290 289 288 287 287 290 288 287 286
291 283 280 278 282 283 285 286 287 286 287 287 287 285 287 287 287 284 281 279 280 277 277 275 274 277 281 281 283 284 284 285 285 285 287 288 288 289 291 292 292 293 292 292 291 290 290 290 289 290 291 293 292 291 293 295 295 295 295 296 297 298 298 298 299 299 299 297 295 294 293 293 291 291 291 290 289 289 287 287 287 287 288 287 287 288
283 282 284 277 275 279 281 283 284 285 285 282 282 284 285 287 286 284 282 281 280 278 279 276 276 276 283 281 281 282 283 285 286 285 286 288 289 289 291 292 291 292 293 293 293 292 289 288 290 293 293 293 292 291 292 294 294 294 293 293 295 294 293 294 294 295 294 293 291 290 291 289 289 290 289 288 288 288 287 287 286 287 288 287 287 287
288 283 284 278 276 275 273 275 278 279 280 282 283 283 286 287 285 284 281 281 278 277 277 273 275 279 282 282 282 283 282 285 286 285 285 287 289 291 291 292 293 294 295 294 293 291 291 292 291 290 290 292 291 293 293 292 291 291 291 291 291 292 291 291 291 292 292 291 291 290 289 288 288 289 288 288 287 287 287 286 287 287 286 287 288 286
283 285 286 285 282 281 282 281 285 285 282 283 283 284 285 286 286 287 284 281 282 279 276 280 283 283 283 286 284 287 284 286 287 286 288 289 289 291 292 294 294 295 295 295 294 293 290 290 291 293 292 293 291 291 291 291 291 291 291 290 290 291 291 291 291 291 291 290 290 289 288 288 288 288 287 287 286 286 286 286 286 287 286 285 287 287
282 283 285 286 285 285 284 285 287 289 286 286 285 284 285 286 285 285 283 283 284 280 280 284 283 282 285 286 287 287 289 286 286 287 288 288 289 293 294 292 293 293 292 292 291 292 293 293 292 291 292 291 291 290 290 290 291 291 292 291 290 290 291 291 290 290 289 289 289 288 287 287 286 286 286 286 286 286 286 286 286 285 285 286 287 286
285 284 284 284 283 284 284 286 288 289 289 288 287 287 286 286 286 285 285 287 285 283 282 286 284 283 285 286 289 290 291 290 290 290 289 290 290 291 291 292 293 294 294 294 294 293 292 293 293 292 292 292 291 290 289 290 289 289 289 289 290 290 290 290 290 289 289 288 288 287 286 286 286 286 286 286 286 286 285 285 285 285 285 285 285 285
286 280 282 283 283 284 284 285 287 287 285 285 286 287 288 287 286 287 287 288 287 285 287 287 286 286 288 288 291 291 290 290 287 286 287 288 290 292 292 293 293 293 293 295 295 294 294 294 293 293 292 291 291 291 290 290 290 290 290 289 289 290 288 289 289 289 288 288 287 286 286 286 285 285 285 285 285 285 285 285 285 285 284 283 283 283
287 279 286 282 281 283 285 286 285 286 285 284 284 286 287 287 287 288 288 288 287 286 287 286 284 285 289 289 290 288 287 288 289 287 288 289 289 292 293 294 294 294 294 295 295 294 294 294 294 293 292 292 291 291 291 291 290 290 289 289 289 289 288 289 288 288 288 287 286 286 285 285 285 285 285 284 284 284 284 284 284 283 283 283 283 283
286 278 281 280 279 277 281 284 285 284 283 282 282 284 285 284 283 285 284 286 284 285 286 285 284 285 287 286 289 291 289 289 289 290 290 289 289 292 293 294 295 295 295 295 295 294 294 294 294 293 293 292 292 291 291 290 290 289 290 289 289 288 287 288 287 287 286 286 285 285 285 285 284 284 284 284 284 283 283 283 282 282 282 282 282 282
285 281 280 278 278 275 277 278 280 282 283 281 283 285 285 286 287 287 288 288 288 289 285 283 285 289 287 289 291 289 288 290 291 292 291 289 290 293 294 295 295 296 297 296 295 294 294 295 295 295 294 293 292 291 291 291 290 290 289 289 288 287 287 287 287 286 285 285 285 285 284 284 284 284 283 283 283 282 282 282 282 282 281 281 280 280
281 283 278 280 278 273 274 277 281 282 277 279 289 290 288 286 286 284 285 287 289 289 288 291 291 289 289 290 290 289 288 291 293 294 294 294 292 292 294 295 295 296 296 296 295 295 295 296 295 295 294 293 292 291 290 289 290 289 288 288 287 287 287 286 286 286 285 284 284 284 284 283 283 283 282 282 282 282 282 282 282 281 280 280 279 280
284 282 279 275 277 274 273 276 279 276 278 288 287 291 291 290 289 288 289 289 289 290 290 290 290 289 289 291 292 292 292 293 291 291 291 289 290 292 294 295 295 295 295 295 294 294 295 296 295 293 291 291 290 289 289 288 288 287 287 287 287 286 286 286 285 285 285 284 284 283 283 283 283 282 281 281 281 281 281 281 281 280 280 280 280 280
283 283 277 275 274 273 272 275 272 276 282 285 286 285 287 289 287 287 286 288 289 289 290 290 291 293 292 291 291 290 289 290 288 288 289 289 290 293 292 295 296 295 295 295 295 295 295 295 295 294 293 291 289 289 289 288 287 287 287 287 287 286 286 285 285 284 284 283 283 283 283 282 282 281 281 281 281 281 280 280 280 280 279 279 278 277
287 284 282 278 275 275 272 276 277 280 282 283 285 284 286 285 284 285 283 287 290 291 290 290 291 292 292 292 290 289 286 289 289 292 291 291 289 290 294 295 296 296 296 296 296 296 297 296 295 294 291 289 289 289 288 287 287 287 286 286 285 285 285 285 284 284 283 283 282 282 282 282 281 281 280 281 280 280 280 280 279 278 277 279 278 278
285 285 281 282 276 274 274 271 272 275 276 283 285 285 290 288 290 290 287 286 291 292 293 292 291 291 291 291 288 287 289 289 288 290 293 289 289 291 292 293 293 293 293 293 291 291 291 291 289 289 290 289 288 288 288 287 287 286 286 285 285 284 284 284 284 283 282 282 282 281 281 281 281 280 280 280 280 279 279 278 277 278 276 279 279 278
281 281 282 284 276 274 271 273 272 274 280 283 284 287 289 290 291 288 283 283 289 290 291 292 292 292 291 290 287 287 288 286 288 292 293 291 290 290 292 292 291 288 289 291 292 291 290 291 291 289 288 288 288 287 287 287 287 286 286 284 284 284 283 283 283 282 282 281 281 281 280 280 280 280 279 279 278 278 278 278 278 276 276 276 276 277
280 277 278 277 273 275 277 274 276 273 281 282 284 285 288 289 291 288 275 281 285 290 291 291 291 291 290 291 289 289 289 287 289 293 294 292 292 289 289 289 286 286 287 286 288 288 289 288 288 287 288 288 288 287 287 287 287 286 285 284 284 283 283 283 282 281 281 280 280 279 279 278 278 277 278 277 276 276 277 276 275 275 275 274 276 276
277 277 277 280 279 277 281 273 272 279 281 280 283 286 286 292 290 281 278 285 286 288 289 291 291 292 292 290 289 289 291 295 293 287 285 287 287 286 284 284 284 284 284 284 284 286 286 287 289 289 289 288 287 286 286 286 286 284 284 283 283 283 282 281 280 280 279 279 278 277 277 276 276 276 275 276 276 276 274 274 275 274 275 275 275 275
274 272 272 274 274 277 277 275 277 279 284 286 282 287 287 289 277 281 286 287 287 286 284 289 290 291 290 290 290 292 294 288 280 284 286 286 287 284 283 282 282 282 282 282 283 285 286 285 285 285 284 284 285 286 286 286 285 283 282 282 282 282 280 279 279 279 278 277 276 276 275 275 274 274 275 273 274 275 274 272 273 274 273 274 275 276
281 278 277 279 274 272 270 276 272 275 279 289 287 286 285 283 287 286 283 286 284 283 285 285 287 289 289 289 290 291 288 283 285 284 284 283 283 283 283 283 283 283 283 283 283 282 285 284 284 284 283 283 284 284 285 285 283 282 281 282 280 279 278 278 278 278 277 276 275 274 274 274 273 274 273 273 274 275 274 273 273 273 274 274 274 275
284 278 274 278 280 276 275 275 278 283 287 289 291 287 287 290 286 285 289 291 285 284 284 284 285 287 287 291 290 289 284 283 283 283 281 282 281 282 282 282 281 281 281 281 282 283 283 283 282 282 281 282 283 283 283 284 282 281 281 280 277 277 277 277 276 276 275 274 273 273 273 273 272 272 272 273 273 274 275 274 273 273 273 273 273 273
284 284 282 281 281 279 280 283 286 284 287 289 289 289 293 293 286 286 290 292 290 289 284 285 288 287 286 288 287 286 284 284 284 283 284 283 282 282 282 282 282 282 282 282 282 281 283 283 282 281 281 281 281 281 281 282 281 279 279 277 276 276 276 275 275 274 273 273 273 273 272 272 273 272 272 271 273 274 274 272 272 272 270 271 271 270
283 286 282 286 282 286 286 287 284 282 284 287 284 285 286 292 285 283 288 289 288 290 287 290 288 288 285 285 287 283 287 285 282 282 281 281 281 281 280 280 280 280 280 280 280 281 281 281 280 280 280 278 278 279 279 279 281 280 278 276 275 275 275 274 273 273 272 272 272 272 273 273 272 271 270 270 270 271 270 272 272 271 269 268 268 268
282 282 283 282 280 284 282 289 285 285 284 287 290 285 282 283 287 283 285 288 288 285 285 285 286 286 287 286 289 288 286 283 284 283 281 281 281 281 281 281 280 280 280 280 280 279 280 280 280 279 279 278 276 277 277 277 277 278 276 275 275 274 274 273 273 272 272 272 271 271 272 272 271 271 270 269 268 269 269 268 268 269 268 267 268 267
283 281 284 282 281 284 286 284 283 284 284 285 285 288 289 286 285 283 283 283 282 282 282 284 283 283 284 286 285 286 284 284 284 283 282 282 282 281 281 281 280 279 278 278 278 278 279 280 280 278 278 278 276 276 275 275 274 274 274 274 273 273 273 272 272 272 271 271 271 271 271 271 272 270 269 268 268 268 267 266 266 267 268 267 266 267
283 286 283 283 284 285 285 282 282 286 288 286 284 284 286 288 288 285 282 281 282 283 282 281 282 283 285 285 284 285 284 283 284 284 283 282 281 281 281 280 280 279 278 277 276 277 279 278 278 278 278 277 275 274 273 272 272 272 273 273 272 272 272 272 271 271 270 270 270 270 270 270 269 268 268 267 266 264 265 267 266 266 265 266 264 265
285 284 282 283 280 283 285 285 285 283 283 287 287 289 287 283 284 283 281 282 282 283 282 283 281 280 281 282 283 285 286 284 283 282 282 282 281 281 280 279 279 278 276 275 275 275 275 275 277 277 276 275 273 272 272 270 270 270 271 271 271 271 271 271 270 270 269 270 270 269 269 268 267 266 266 266 266 267 266 271 272 269 267 267 273 276
287 284 284 285 284 284 288 285 289 290 287 285 288 284 283 281 283 284 284 284 282 282 282 284 284 282 282 281 282 283 283 284 282 282 281 280 280 280 280 279 278 277 276 275 275 273 274 274 274 274 274 274 272 271 271 270 269 269 269 269 270 271 271 270 270 270 269 268 268 268 268 267 267 267 266 266 266 267 269 270 273 277 276 276 277 278
Wind_Speed
3 10 12 16 14 12 11 12 7 8 10 5 4 2 6 6 4 3 3 2 1 3 7 7 9 10 11 8 6 4 1 3 5 7 8 7 8 9 9 10 12 11 15 9 10 11 12 13 12 10 9 9 9 9 10 10 10 12 12 11 12 9 9 9 9 8 9 9 7 5 9 9 7 6 4 5 5 5 6 6 7 7 6 6 6 6
4 8 13 8 8 13 13 11 9 10 11 5 6 5 7 3 6 4 3 0 0 5 5 7 6 10 11 7 6 1 3 9 10 10 8 10 9 10 11 12 11 14 4 2 6 7 6 9 10 8 8 8 10 10 10 13 13 12 11 13 12 9 10 11 11 10 9 9 10 10 10 8 6 5 6 6 5 6 5 5 6 7 7 7 7 7
9 13 6 3 4 6 9 11 8 7 9 4 6 5 4 7 3 5 1 1 0 2 7 1 6 11 12 10 6 4 8 8 10 11 13 13 10 10 10 11 11 6 8 6 9 8 10 11 11 10 10 10 13 13 13 13 12 11 11 11 11 11 11 11 11 10 11 9 8 8 5 7 4 3 5 5 5 5 6 6 6 6 6 6 6 6
7 11 7 6 7 10 11 10 9 8 5 5 4 4 6 3 4 6 2 1 0 3 2 3 5 8 8 6 7 7 8 8 8 10 11 8 13 14 14 14 12 13 11 10 12 13 11 11 11 10 11 12 10 10 10 10 12 11 11 11 11 12 11 11 11 11 11 9 5 4 4 5 6 5 4 4 4 4 4 5 6 6 7 7 6 6
10 5 7 9 10 12 13 13 10 9 9 3 5 4 5 2 5 5 5 1 0 0 2 2 2 6 5 7 6 6 10 8 6 6 8 9 9 8 5 5 10 15 14 13 11 9 9 10 13 14 13 10 12 13 12 12 12 10 13 13 13 12 12 11 11 11 7 6 4 4 2 2 2 1 2 4 5 5 5 5 5 7 6 6 7 6
7 6 15 13 14 12 11 13 13 7 8 6 5 9 10 8 6 3 1 5 1 3 3 2 2 7 5 8 12 10 3 6 8 8 11 13 12 8 8 13 11 9 8 13 14 14 14 14 12 10 10 11 12 13 13 12 13 12 12 12 11 10 10 11 10 10 8 9 9 7 7 6 5 7 5 9 10 7 6 8 4 4 5 6 6 5
8 5 14 15 15 13 12 11 11 7 7 6 6 7 12 9 6 4 5 4 3 5 3 1 9 7 4 5 8 10 8 11 3 6 12 11 11 9 12 13 11 12 10 7 7 6 8 10 10 11 12 13 13 13 10 9 10 11 10 10 11 11 10 10 8 9 9 8 9 11 11 9 9 9 6 2 3 5 5 4 5 5 4 4 6 5
7 6 12 12 13 13 12 13 11 9 7 9 2 2 4 4 5 7 9 8 4 1 1 1 3 5 8 8 5 2 3 8 8 8 11 11 11 11 13 13 10 11 9 10 12 10 9 10 13 16 15 13 14 12 9 10 9 10 10 10 11 9 9 8 7 9 10 11 9 9 9 9 8 8 7 5 4 3 4 4 5 4 4 4 5 6
13 7 13 12 10 10 13 7 6 8 6 3 3 6 5 6 8 8 7 6 1 3 6 2 1 1 6 7 4 1 3 6 10 10 13 14 14 15 15 13 12 12 10 10 10 11 11 11 12 11 12 13 11 8 9 10 10 9 8 8 7 8 7 7 8 10 9 9 10 10 8 7 5 5 5 4 2 4 3 5 2 3 3 3 3 3
2 10 13 13 10 11 5 9 10 8 6 6 2 3 3 4 4 3 5 5 0 2 7 5 4 4 7 6 4 1 2 7 9 11 14 16 17 15 13 11 11 7 6 7 9 8 9 10 10 9 6 6 8 6 5 5 5 6 6 7 9 9 8 7 8 9 9 8 8 8 8 9 6 5 3 2 4 4 4 5 3 1 1 1 1 1
1 5 1 5 10 6 7 8 12 8 5 3 6 3 2 6 2 3 4 2 2 4 7 5 3 3 5 5 8 6 7 8 10 7 5 6 8 10 11 11 10 9 9 8 7 7 7 5 5 3 6 6 4 4 5 5 6 6 7 7 9 9 7 7 9 9 10 8 8 9 8 8 8 6 6 4 3 3 3 4 3 3 2 2 2 2
2 1 3 2 2 2 4 4 2 3 2 5 3 4 3 1 4 2 1 2 3 6 6 2 3 3 7 4 5 8 4 4 5 7 10 9 9 10 8 8 8 7 7 5 5 6 5 4 5 4 6 5 6 5 5 5 6 7 7 8 9 6 7 7 8 8 9 8 8 7 9 9 9 9 8 7 7 6 6 5 5 3 4 3 3 4
0 3 1 2 2 6 5 5 3 2 3 4 3 5 7 3 1 4 0 4 5 6 0 0 2 1 10 7 8 6 8 8 6 8 9 8 8 6 6 7 6 6 6 7 6 5 5 6 7 7 7 5 6 8 8 8 7 7 7 9 10 9 6 8 7 9 8 8 8 8 9 8 7 8 8 7 7 5 6 5 4 5 5 2 1 1
5 1 1 2 2 4 6 11 4 6 4 6 7 6 7 5 4 5 3 1 4 6 4 1 0 4 3 5 13 15 17 12 6 8 9 7 8 8 6 5 5 5 6 7 6 6 6 6 5 5 5 6 5 6 7 7 7 7 7 8 10 9 6 6 7 8 9 8 8 7 7 7 7 7 7 6 7 6 5 5 5 5 4 3 2 1
8 5 6 5 2 2 3 5 8 4 6 7 3 8 5 5 3 4 3 6 8 8 1 3 1 6 5 4 3 10 10 9 6 8 6 5 6 4 1 1 1 3 4 4 5 6 6 6 5 6 5 5 5 5 6 6 6 6 7 7 8 8 6 7 8 7 8 7 6 5 6 7 5 7 5 5 5 6 5 5 5 4 3 3 1 0
10 2 2 2 1 0 7 1 3 8 4 3 3 4 6 10 5 5 5 3 2 1 1 1 6 4 5 3 7 5 7 7 3 4 2 5 2 2 2 4 5 5 4 4 4 5 5 5 5 4 4 5 5 5 5 5 5 6 6 5 6 8 7 7 7 6 7 7 6 6 6 6 6 5 5 5 4 4 5 6 6 5 3 2 3 2
3 5 1 6 1 0 2 1 3 4 8 3 4 7 4 2 6 3 2 0 1 3 6 2 5 6 8 9 9 3 4 7 2 2 2 4 3 2 6 5 5 4 4 4 5 5 5 4 4 5 5 5 5 5 7 7 6 6 6 6 6 6 5 6 6 7 6 7 7 5 6 6 6 7 7 7 6 6 5 5 5 4 3 3 4 4
10 3 1 3 3 0 1 0 2 2 2 7 5 8 2 1 3 4 5 2 1 5 7 2 6 5 1 7 4 5 2 9 5 4 3 3 2 5 6 5 5 5 5 3 3 4 4 5 5 5 5 6 7 7 5 6 4 5 6 6 8 6 8 5 6 7 7 8 7 6 6 6 7 7 6 6 6 5 6 5 5 5 4 5 4 5
6 2 1 0 0 5 2 0 1 1 2 4 7 6 7 5 7 1 2 4 2 4 4 2 2 4 6 7 5 4 4 9 9 4 3 5 5 7 7 6 5 4 3 4 4 4 3 4 5 5 6 5 5 5 5 5 5 4 5 5 7 8 7 7 6 5 5 6 6 6 6 6 6 6 6 5 5 5 5 5 5 5 5 4 3 4
1 5 2 1 2 1 1 2 9 2 2 1 3 3 1 2 3 3 7 2 4 5 0 8 1 6 6 6 8 11 9 8 6 4 9 11 10 8 7 6 6 5 5 5 5 4 4 4 4 5 5 5 5 5 5 5 5 6 5 6 5 5 6 6 7 7 7 5 7 6 6 5 5 6 5 5 5 5 5 5 6 6 5 4 3 4
3 2 4 1 1 2 2 2 5 8 6 2 2 3 1 0 2 2 1 4 5 5 4 3 4 4 7 8 7 11 12 9 4 8 9 8 7 8 6 6 6 6 6 6 5 4 4 3 3 3 3 3 3 3 4 5 6 6 5 6 6 9 7 7 6 6 6 6 6 6 5 5 5 5 5 5 5 7 5 4 5 5 5 4 4 4
2 2 6 1 2 3 5 3 5 9 10 8 7 7 9 6 4 6 10 2 2 2 5 3 7 6 10 3 8 10 6 4 5 7 9 9 8 8 7 6 6 6 6 5 4 4 4 3 2 2 2 3 4 4 5 4 5 5 6 6 6 7 6 6 6 6 6 5 6 5 6 5 4 6 6 7 5 7 5 5 5 6 5 6 3 5
6 3 8 5 7 9 6 1 1 0 3 4 8 10 9 5 4 4 7 5 2 2 4 3 1 8 6 3 5 6 5 5 5 4 9 6 6 7 7 7 6 5 5 6 5 4 4 4 4 5 5 5 5 5 5 5 6 6 5 5 5 7 5 5 6 6 7 7 7 7 6 6 6 6 6 7 5 6 6 5 5 4 7 6 5 4
8 4 5 2 2 2 4 3 1 1 2 3 5 2 6 11 8 5 3 5 6 1 2 2 6 7 4 2 4 5 6 7 6 4 7 6 5 5 6 6 5 5 3 2 2 3 4 4 3 4 4 5 4 5 5 5 5 5 5 5 6 7 7 7 6 7 7 7 7 7 7 7 6 7 7 7 5 7 5 5 5 5 6 5 5 6
4 3 9 3 2 2 5 4 3 1 2 1 2 2 1 0 3 2 5 2 3 6 6 5 13 3 4 3 4 3 4 5 6 4 4 5 5 5 6 5 4 4 3 4 5 5 4 4 5 6 5 5 5 4 5 6 6 6 6 6 7 7 6 6 6 7 7 8 8 7 7 6 6 7 7 7 6 6 6 5 5 5 6 6 5 4
7 5 9 8 12 10 6 11 13 7 5 2 2 2 3 6 6 4 5 2 7 2 4 4 8 7 9 5 4 5 4 6 6 6 4 4 4 5 5 4 4 5 6 5 5 5 8 7 5 5 5 4 5 6 5 5 6 6 6 6 6 8 6 6 6 7 8 7 9 7 7 6 6 7 7 7 6 6 6 6 5 6 5 5 6 5
3 3 7 10 13 15 9 1 1 10 4 8 5 6 5 4 5 6 4 5 12 5 6 9 11 5 5 6 5 8 5 6 6 5 4 4 4 3 3 4 5 6 7 9 9 7 4 5 7 7 6 6 5 5 5 6 6 6 6 6 5 6 7 7 7 7 8 7 7 7 6 6 6 7 7 7 7 6 6 6 5 6 6 5 6 6
3 5 9 10 9 6 6 6 8 14 11 11 8 7 7 7 5 6 9 12 4 3 12 13 7 6 11 5 6 9 9 5 6 6 7 7 5 4 4 3 4 4 4 4 5 8 10 9 6 7 7 6 6 5 5 5 6 7 8 8 6 7 7 7 8 8 8 8 8 7 7 6 5 6 6 6 6 6 6 5 5 5 5 6 7 6
7 10 5 5 5 4 4 8 11 10 13 13 14 13 11 11 9 11 12 13 7 10 19 11 4 9 7 6 10 12 9 6 8 9 5 2 1 3 3 5 6 6 6 8 9 8 8 10 9 9 8 8 6 7 7 6 6 5 5 5 6 7 8 8 9 9 8 8 8 7 6 6 5 5 6 6 7 7 6 6 5 6 6 6 6 5
5 5 4 6 5 3 2 6 7 10 6 5 10 15 16 14 16 18 19 16 14 14 15 8 8 17 10 9 13 13 7 6 4 2 1 4 6 6 5 5 7 7 8 11 11 10 8 8 8 9 8 8 9 9 8 7 7 7 8 7 7 7 7 8 9 10 9 9 8 7 7 7 6 5 5 6 7 6 6 6 6 7 6 6 5 5
5 5 8 5 4 4 4 2 5 8 7 7 8 10 13 15 17 20 18 16 12 13 15 10 10 18 10 8 9 5 3 0 1 3 6 9 5 6 7 8 7 9 11 10 8 10 10 9 8 8 9 10 10 11 10 9 8 7 7 7 8 8 7 7 9 8 9 10 8 8 8 8 7 5 6 5 6 6 7 7 6 6 6 6 5 6
3 3 1 4 6 4 2 5 8 6 2 4 7 11 14 15 14 10 9 6 6 14 16 13 13 19 2 4 7 9 6 3 5 8 8 7 7 7 9 9 10 12 12 12 11 9 10 11 12 13 14 13 12 11 10 10 9 9 10 9 9 8 7 7 6 8 8 8 9 8 9 8 7 7 6 6 7 7 6 7 7 6 5 6 6 4
7 7 6 5 7 5 1 1 5 5 2 5 13 20 17 11 11 8 9 9 15 16 12 12 21 7 5 9 11 8 3 6 10 9 8 5 5 9 11 12 13 13 13 12 11 13 13 15 16 16 14 11 12 12 11 10 11 11 10 10 8 8 8 8 8 8 8 7 8 9 8 8 8 8 7 6 7 6 7 7 6 6 6 5 4 4
4 7 4 4 6 4 0 2 3 6 7 16 11 6 12 15 13 10 11 16 15 8 12 14 13 2 6 7 11 6 8 10 13 13 10 9 8 8 9 9 11 12 10 9 10 12 12 10 9 10 11 10 8 7 7 7 8 7 6 8 8 8 8 9 8 8 8 7 7 8 8 8 8 8 7 6 6 6 7 7 6 5 4 4 4 4
9 7 6 3 4 4 2 4 5 10 16 9 3 9 14 12 11 20 20 16 14 15 16 16 15 6 7 11 12 10 10 10 6 6 7 5 5 7 11 13 13 11 11 10 10 11 12 14 12 10 9 9 10 9 9 8 6 8 8 8 9 7 9 8 9 8 8 8 7 7 7 8 8 9 7 7 6 6 6 7 6 5 4 4 4 5
10 8 4 2 5 4 3 6 6 15 6 2 5 3 4 8 8 6 11 12 10 10 14 19 22 18 13 12 7 0 3 6 5 6 9 8 7 9 8 11 13 11 11 12 14 15 14 14 16 17 15 9 10 9 9 9 8 9 9 6 8 9 8 9 9 9 8 8 8 7 7 8 9 8 8 7 6 7 7 5 5 6 4 4 4 3
12 7 7 5 0 7 5 8 11 6 9 6 7 3 7 8 6 10 9 13 14 14 15 18 18 12 11 11 5 0 0 0 3 10 8 9 9 9 12 13 13 12 14 13 14 16 15 13 13 11 9 10 10 11 11 9 9 10 10 9 8 8 8 9 10 9 9 8 8 8 7 7 9 9 8 7 8 7 7 7 6 4 3 6 4 5
5 11 5 9 3 6 7 1 1 6 11 19 1 4 7 5 7 7 6 15 8 14 15 16 17 14 12 9 2 3 2 1 9 12 10 7 8 11 12 10 8 7 7 6 5 4 6 6 6 7 11 12 10 10 9 10 11 11 11 10 9 10 9 9 9 8 8 8 8 7 7 7 8 9 8 8 8 8 6 5 4 4 3 6 6 6
5 4 5 10 3 4 3 6 6 8 17 2 8 8 8 9 10 8 2 15 8 10 10 14 17 12 10 10 6 6 5 7 13 15 8 8 9 10 12 13 8 4 4 7 9 9 8 9 11 11 10 11 13 10 10 11 12 12 11 11 10 9 10 10 9 9 9 8 6 6 6 6 6 7 8 8 7 7 8 6 6 4 4 5 5 5
6 2 5 3 4 5 7 4 9 5 10 4 6 6 12 10 13 7 1 15 1 14 13 12 12 10 11 13 10 10 11 13 14 15 8 10 9 4 5 6 4 4 2 1 1 5 8 9 11 9 12 14 13 11 12 12 12 11 12 11 10 11 11 10 10 7 6 6 6 6 6 5 6 6 7 9 7 6 6 5 6 5 6 4 5 6
3 0 3 12 8 5 8 6 3 8 4 4 6 7 7 11 12 8 17 9 5 8 8 10 14 14 13 11 10 11 13 17 12 4 1 5 4 2 4 3 2 2 4 4 5 6 8 8 11 13 13 10 11 11 11 11 11 11 10 11 11 11 9 8 8 8 7 7 6 6 6 5 5 8 6 5 7 7 5 5 6 6 6 6 5 6
0 3 2 3 5 9 7 6 10 8 8 10 1 9 7 9 6 16 5 3 8 7 3 9 11 10 8 11 11 12 13 5 3 1 1 4 5 4 4 4 4 5 4 3 5 6 7 7 6 7 7 7 11 11 11 11 11 10 10 10 10 8 7 8 8 8 8 7 6 6 5 6 5 4 6 6 7 8 7 4 5 6 6 6 6 7
11 8 8 9 3 4 2 6 1 12 2 11 11 4 3 4 10 7 4 3 1 3 6 5 6 8 8 9 11 14 7 1 1 2 2 1 4 6 6 6 6 7 8 7 6 4 7 9 8 8 8 7 8 8 9 11 12 10 9 10 8 7 8 8 8 8 8 7 7 6 6 5 5 6 5 6 6 8 8 5 6 5 6 7 6 7
8 6 5 6 6 8 7 8 11 7 8 11 19 11 10 14 6 6 5 7 4 5 6 5 7 9 8 10 11 10 5 4 0 1 2 1 2 3 3 3 4 4 4 3 4 7 7 8 7 8 6 6 7 7 8 12 12 11 11 10 7 8 8 8 7 8 8 7 6 6 5 5 4 4 4 6 7 7 8 7 6 6 6 6 7 7
10 11 8 9 6 8 10 13 10 4 8 8 2 1 13 14 6 8 9 9 8 8 6 5 8 8 8 10 7 6 5 6 5 6 6 7 5 5 6 5 6 6 6 7 7 5 5 10 11 9 7 6 6 6 7 7 12 12 12 8 8 9 9 9 9 8 8 7 7 6 5 5 5 5 5 4 6 8 7 6 6 7 4 6 6 6
3 7 0 5 6 5 6 7 1 2 1 5 5 2 3 11 5 3 8 7 6 7 9 9 8 8 7 6 7 4 8 8 6 7 3 3 5 4 3 3 3 3 4 4 5 5 6 7 7 9 10 6 4 5 5 5 9 15 10 9 8 8 9 10 10 9 8 7 7 7 7 8 6 5 5 4 4 4 4 7 7 7 6 6 6 6
2 3 4 5 2 7 11 13 5 4 4 9 10 1 1 2 5 4 4 7 6 4 5 4 4 7 8 9 11 10 8 7 8 6 4 5 6 6 6 6 5 5 7 8 6 8 8 8 9 9 9 9 4 5 4 5 4 5 9 10 8 8 9 9 9 9 8 8 7 6 6 7 7 6 5 4 4 4 4 5 6 7 6 6 7 6
3 3 5 5 5 10 15 3 4 3 2 3 5 3 4 4 4 5 5 4 2 1 2 3 2 3 4 6 6 6 7 7 9 9 7 7 7 7 7 6 7 5 3 4 5 5 6 8 9 10 9 9 6 5 5 5 5 7 8 8 8 8 9 9 9 10 9 8 7 6 6 6 6 7 6 5 5 6 5 4 5 7 7 8 8 8
6 10 7 7 8 6 6 1 2 5 1 3 5 6 7 9 9 7 3 2 2 3 3 2 0 3 5 5 6 7 9 9 8 10 10 7 7 6 7 7 5 5 6 7 5 6 8 7 8 8 9 8 5 6 6 6 6 7 9 8 8 9 10 9 8 7 8 7 7 6 5 6 6 6 6 6 4 3 3 7 6 6 4 4 5 6
9 10 2 4 3 9 13 9 8 3 6 8 8 11 8 3 3 4 3 3 3 5 4 5 3 3 2 2 5 7 10 9 6 6 8 7 7 6 6 6 6 6 5 4 4 4 4 5 7 9 8 6 5 6 6 6 6 6 6 7 8 8 10 10 9 8 8 7 7 6 6 6 6 5 6 6 7 6 2 3 6 4 5 3 6 9
10 7 7 10 10 13 12 6 11 10 6 5 7 5 4 5 6 8 8 6 4 3 4 7 6 3 3 2 1 3 4 8 7 5 5 4 4 4 5 7 8 7 6 6 7 5 5 5 5 5 6 6 6 6 6 6 6 7 6 6 7 8 9 10 9 8 7 7 7 7 7 7 7 6 6 5 6 6 7 7 5 7 5 3 5 9
Wind_Direction
136 163 188 197 192 183 175 193 210 244 263 274 333 321 223 203 270 275 261 254 189 135 220 205 223 235 245 239 229 218 158 248 250 236 225 220 213 214 218 216 216 217 223 213 209 207 204 204 205 205 198 201 202 199 185 182 188 189 188 183 194 193 182 180 182 183 180 187 194 203 205 212 205 202 193 201 206 206 206 190 191 194 202 202 204 206
148 188 214 197 174 181 182 194 230 250 255 247 273 289 286 249 236 232 212 351 272 171 243 212 228 247 249 264 256 180 167 237 226 226 232 227 219 216 214 219 218 222 238 190 226 230 216 209 206 198 198 193 195 208 193 191 191 189 185 187 192 185 189 193 189 186 191 195 197 195 204 200 198 193 194 208 207 207 207 205 201 198 200 202 203 201
195 212 187 147 159 170 203 215 252 246 258 229 216 246 272 261 246 288 284 271 295 144 266 128 213 246 251 244 248 166 205 230 223 209 215 211 220 222 220 224 225 228 229 212 223 215 207 206 202 194 197 200 201 199 200 200 191 188 185 191 189 189 191 197 193 186 198 200 200 193 191 183 197 220 203 202 201 195 201 206 207 206 204 203 207 203
195 225 181 165 171 189 210 235 260 273 272 242 238 231 230 241 155 266 289 148 279 142 253 176 197 262 268 259 252 228 209 238 230 219 232 214 214 215 215 208 211 220 219 216 214 213 208 204 203 198 199 200 199 201 206 204 198 194 192 191 190 191 193 194 196 197 202 195 180 176 152 178 177 194 201 200 207 198 201 214 211 214 208 206 207 204
184 111 161 183 195 196 200 214 230 238 251 233 221 222 246 221 233 199 229 131 289 349 93 89 339 295 248 260 273 255 228 244 251 237 249 253 244 242 270 264 225 213 207 215 220 221 208 206 208 202 201 192 198 202 202 199 199 197 196 194 191 190 194 195 193 196 182 150 147 130 83 117 142 32 168 202 234 211 207 215 209 219 207 209 210 208
222 216 164 183 197 199 201 205 223 214 238 257 231 211 226 233 229 256 154 119 66 285 248 160 300 266 268 242 235 247 243 238 236 221 235 236 239 232 234 233 231 238 223 210 208 206 203 205 207 208 201 200 204 205 204 200 200 198 199 196 193 193 193 195 193 186 168 175 170 164 169 178 189 205 188 208 212 206 212 215 209 214 206 209 211 209
199 180 172 180 187 198 201 210 216 207 216 220 250 204 226 225 206 149 162 110 180 197 281 144 201 267 325 256 232 231 234 243 278 223 237 236 238 225 228 230 225 221 224 234 242 231 206 210 203 205 203 204 205 210 200 200 202 203 198 196 194 194 195 193 185 174 170 176 182 187 194 196 198 205 224 219 195 197 219 205 204 208 198 200 200 209
185 177 182 185 183 188 194 205 212 199 190 235 256 226 215 165 155 187 173 186 210 269 320 42 152 216 271 267 247 286 233 254 259 249 249 245 240 230 230 229 224 224 215 209 215 214 212 205 198 201 204 202 207 203 195 200 200 199 197 191 196 195 192 189 175 174 180 184 187 190 199 198 199 204 212 201 206 202 177 183 205 195 198 199 199 200
174 184 180 195 197 189 203 193 192 195 196 217 229 166 201 194 195 175 174 181 187 145 255 296 255 213 258 268 304 152 260 267 255 239 241 239 236 234 232 230 226 223 215 205 210 212 206 207 213 212 204 208 205 195 192 197 197 195 193 191 188 193 188 185 174 177 186 186 185 189 188 198 209 197 209 194 170 166 171 174 163 178 205 214 231 232
272 183 186 184 189 204 179 167 198 182 193 257 132 98 72 54 61 121 155 139 59 133 243 224 183 205 277 276 321 337 229 256 258 242 232 229 229 229 232 235 230 230 227 224 225 220 215 212 212 211 217 205 205 195 195 196 182 186 182 186 186 196 190 183 177 178 183 183 177 184 187 190 196 191 178 151 167 168 161 169 191 198 108 159 126 40
187 349 345 159 194 180 171 180 187 201 217 77 122 87 23 38 41 28 75 106 81 246 246 236 250 173 280 255 210 185 220 201 237 263 264 248 243 240 230 227 222 220 219 218 220 225 222 227 221 205 206 206 195 196 181 188 190 188 188 187 192 197 186 181 181 175 182 181 181 184 180 183 187 187 169 151 141 133 143 165 167 136 116 57 76 75
25 13 133 233 72 95 143 138 21 152 171 147 180 136 86 333 18 28 333 41 186 256 262 252 205 159 208 289 272 238 271 235 227 247 255 250 232 232 228 225 221 214 211 207 200 211 202 181 198 183 207 201 198 181 193 196 192 190 191 185 192 191 187 184 179 176 175 174 180 179 179 189 192 177 172 172 171 175 170 167 155 153 120 85 59 58
178 166 237 9 236 143 134 135 155 89 140 157 127 129 177 259 75 245 343 240 221 213 257 356 168 344 245 228 260 276 261 274 220 222 247 263 277 260 245 228 215 204 189 187 190 181 183 183 178 187 196 182 185 193 192 194 189 189 186 186 186 195 182 180 171 175 169 169 176 177 185 192 176 172 171 173 173 175 163 159 140 143 147 131 91 7
258 292 320 265 40 234 161 169 178 168 194 168 179 154 175 194 174 209 254 307 323 287 267 246 341 269 250 279 247 255 264 247 251 243 249 254 264 267 243 217 203 200 190 186 182 186 190 192 193 190 183 187 189 192 190 188 185 185 184 185 186 185 173 164 166 167 166 177 175 175 172 165 159 168 170 173 165 174 162 157 156 161 165 150 166 133
171 218 240 151 195 152 194 181 169 158 145 206 121 159 178 144 153 206 200 209 222 210 284 277 88 235 131 246 230 234 259 306 274 257 246 241 252 249 250 242 226 204 221 200 190 196 199 204 197 193 191 191 193 190 189 186 189 176 180 177 178 163 175 163 164 159 164 163 157 155 155 154 160 158 158 160 158 156 147 154 138 148 141 129 185 159
202 185 293 293 235 123 179 247 145 122 143 201 168 78 154 218 140 223 202 169 204 245 289 232 209 184 181 254 277 242 274 285 321 306 302 231 191 158 157 198 209 222 223 213 208 216 223 213 203 200 200 200 196 196 194 194 188 184 184 175 173 165 163 161 152 158 153 151 146 144 143 148 140 130 125 113 115 125 135 150 143 153 143 136 115 80
110 223 339 309 57 121 221 153 177 173 191 206 113 203 213 134 104 95 58 130 115 38 258 173 317 285 298 313 281 328 273 269 296 278 283 262 241 207 203 210 222 229 234 225 219 218 219 211 216 204 194 194 196 197 201 199 191 183 166 163 160 153 151 154 158 150 149 144 137 135 128 129 127 132 136 136 127 122 113 106 94 102 114 109 104 111
154 219 342 82 200 328 143 35 324 4 153 109 188 221 169 110 108 147 221 5 82 209 260 84 214 285 358 270 315 337 306 264 261 252 260 270 272 238 232 233 233 230 235 246 253 252 228 205 196 196 196 190 191 195 197 199 188 177 169 165 157 155 155 158 150 149 149 143 136 131 125 122 127 126 125 124 121 108 95 89 97 110 107 105 111 108
118 85 290 291 166 277 351 57 354 354 3 146 195 172 153 214 227 279 126 223 196 240 264 291 255 263 188 235 332 296 246 258 254 262 275 249 237 235 240 251 254 274 288 254 241 239 234 212 201 193 197 199 193 187 184 174 166 159 162 164 159 160 157 152 146 137 133 135 133 132 131 128 119 112 106 93 90 95 112 121 127 120 115 99 110 110
114 135 295 330 138 278 9 111 198 222 338 63 53 86 344 124 216 146 201 178 132 254 61 287 42 241 206 219 208 251 247 240 243 217 233 225 216 216 224 228 226 225 221 228 227 226 223 217 201 188 181 178 181 176 175 164 156 158 155 149 144 130 132 132 134 136 131 133 127 117 111 105 104 103 108 115 124 122 126 137 130 123 109 120 106 97
180 118 168 289 277 76 198 186 210 161 167 198 123 199 218 140 238 110 43 145 193 197 192 216 297 279 253 213 195 228 241 245 215 227 236 233 224 220 222 215 216 213 211 215 212 210 206 198 194 183 171 157 144 149 156 159 161 155 147 147 151 145 145 139 140 133 130 120 119 116 124 120 116 121 121 114 112 115 118 118 115 114 128 110 89 105
103 162 166 150 74 233 238 231 183 190 190 174 161 194 172 134 145 184 241 49 106 160 237 127 254 268 270 192 208 233 268 311 242 224 237 232 217 212 215 222 210 207 215 205 202 192 184 178 170 138 107 112 121 135 144 147 136 147 154 152 147 138 146 142 141 133 131 125 130 139 130 127 122 123 118 119 120 116 119 119 119 130 105 96 106 103
145 140 115 169 204 198 214 250 225 311 9 240 183 204 180 178 129 141 209 244 16 253 110 161 241 262 245 208 207 235 256 254 256 240 252 247 223 217 216 215 215 214 198 192 184 183 178 175 171 167 160 154 144 140 138 142 146 150 147 144 148 142 147 142 136 129 133 135 137 134 128 123 125 126 127 121 121 117 119 118 114 117 110 113 102 87
84 94 75 320 337 318 307 308 339 80 29 296 278 355 174 195 199 191 166 182 170 224 222 264 253 255 284 255 243 251 260 268 269 233 249 257 238 228 222 215 202 204 200 168 157 160 170 168 154 144 152 147 140 144 144 138 132 132 137 141 139 140 143 136 136 136 130 126 123 126 125 128 132 126 127 122 127 120 121 114 110 113 110 116 113 106
140 245 130 117 23 349 332 338 333 348 70 148 269 269 247 40 117 155 97 80 218 219 186 151 245 267 268 319 300 278 297 301 288 277 208 244 246 229 221 213 190 186 165 163 170 174 164 162 171 180 172 163 158 147 144 142 143 140 141 141 141 140 143 133 133 127 125 127 127 128 127 130 132 127 125 126 126 122 118 114 115 111 118 113 105 112
177 180 147 159 180 186 205 210 212 190 193 249 218 219 195 174 156 135 210 152 220 267 143 197 253 247 273 311 311 301 304 299 271 248 267 219 237 229 223 203 183 176 186 177 168 168 185 187 182 174 175 168 170 163 154 147 144 143 142 147 143 138 134 131 124 125 127 130 128 131 129 133 129 130 130 130 124 123 122 121 114 113 106 117 115 98
164 161 188 193 192 205 205 83 84 130 111 194 216 175 204 201 199 173 130 177 218 199 195 230 230 234 254 251 274 281 289 252 273 295 279 277 260 254 226 193 189 187 184 183 184 182 158 174 191 186 182 179 172 167 159 154 152 150 144 142 140 135 132 135 128 127 126 128 127 130 133 135 135 133 133 128 126 122 117 113 118 113 115 112 108 103
107 183 211 207 210 200 157 159 177 145 180 206 178 202 202 183 177 170 190 226 124 81 262 233 224 223 239 252 266 274 277 276 267 265 261 241 237 212 202 191 171 176 170 167 176 183 189 187 184 185 184 175 174 163 158 159 157 157 153 149 146 139 135 136 130 129 128 129 127 128 130 129 130 129 124 121 118 116 116 116 110 111 110 103 95 99
151 205 210 170 230 143 179 156 171 170 183 190 193 197 195 193 176 196 220 222 154 200 238 239 191 234 237 232 248 242 241 248 245 247 246 236 202 190 164 174 186 193 186 187 199 196 189 187 185 184 182 181 168 168 163 158 155 146 137 140 146 144 144 143 133 133 133 130 130 132 130 123 114 111 116 119 119 118 118 115 112 105 96 92 94 90
150 226 176 175 188 139 206 163 180 177 202 194 197 202 202 187 197 204 217 219 205 228 244 248 246 251 222 218 236 243 232 241 280 328 160 179 213 195 188 194 198 201 201 201 198 195 194 191 184 184 180 177 178 171 168 164 165 163 155 154 151 144 151 140 140 138 137 135 136 134 127 118 114 121 124 123 124 125 122 116 109 102 97 96 100 100
154 251 150 149 155 214 207 158 183 195 181 200 217 216 211 205 208 211 215 221 219 244 251 254 253 263 241 196 242 269 263 326 295 290 230 227 211 189 195 202 204 209 213 210 198 192 190 188 187 183 184 185 182 180 173 169 163 157 152 155 155 154 159 145 142 142 140 138 139 132 125 123 129 133 132 133 126 124 118 113 109 105 103 100 95 97
145 227 44 121 167 238 247 181 191 191 200 217 233 220 217 211 218 226 225 210 186 222 233 237 247 248 79 160 235 239 215 177 225 239 238 236 212 195 198 207 210 216 213 208 200 187 185 186 188 191 191 188 184 178 173 170 168 164 167 163 159 153 146 136 138 138 138 137 136 135 134 135 137 135 138 134 128 122 117 111 109 107 104 102 100 100
172 137 153 146 166 224 264 94 135 114 124 280 248 227 211 213 213 215 227 220 212 213 221 222 238 229 140 199 225 238 203 232 240 245 254 255 211 200 203 207 215 217 215 204 193 193 194 192 193 193 192 184 182 181 183 168 163 174 167 160 156 143 143 142 141 137 135 140 140 141 138 140 141 139 137 134 127 123 115 113 108 108 110 116 131 127
106 132 159 171 170 220 65 149 112 126 202 229 236 172 178 202 200 204 225 222 227 205 226 228 247 121 188 220 236 214 190 217 219 231 219 221 206 206 222 227 223 222 220 211 201 197 200 198 198 198 194 188 180 172 159 168 164 154 148 142 142 145 142 138 139 139 141 141 145 144 142 141 140 135 134 131 126 121 118 113 114 116 119 124 123 116
156 148 164 152 126 156 137 89 142 213 229 240 102 177 185 192 189 207 223 223 222 224 242 259 264 244 212 224 228 224 213 236 249 263 268 242 188 197 209 218 224 220 214 205 199 200 198 196 191 181 176 178 172 160 151 154 151 142 139 147 144 145 141 141 138 140 145 145 147 146 144 140 137 133 133 131 127 122 117 118 120 119 127 120 116 111
159 152 138 58 114 61 89 163 186 226 243 16 245 217 195 181 205 197 256 254 243 229 229 240 242 239 232 240 248 32 202 248 285 264 251 244 190 204 206 221 227 215 211 207 200 202 195 192 188 185 186 162 154 161 164 158 151 147 147 144 145 144 144 142 141 143 144 147 154 154 152 143 138 135 136 134 130 126 125 125 133 129 133 111 100 96
159 130 151 177 167 162 196 188 225 337 323 277 253 194 158 160 142 170 228 251 224 222 220 236 245 246 251 252 237 105 302 339 273 267 246 226 213 210 208 221 219 215 214 214 201 202 198 190 185 179 152 157 161 159 165 154 150 145 143 145 149 144 146 146 148 153 154 154 157 156 154 149 142 141 141 141 135 134 135 134 128 119 124 106 105 99
169 161 213 142 229 126 131 201 334 266 256 245 203 162 163 152 150 154 178 267 216 216 216 229 240 235 239 249 211 174 99 303 273 260 245 234 206 213 224 233 235 228 226 219 203 184 164 160 133 139 155 156 162 162 152 154 151 148 148 150 150 150 151 154 156 156 155 158 159 156 153 151 147 143 145 145 143 139 134 124 109 109 118 119 118 95
35 80 143 167 159 96 117 162 204 207 239 181 153 164 168 142 129 121 84 264 238 186 215 213 233 229 220 224 207 145 168 233 252 253 237 202 222 214 214 223 218 237 213 192 185 177 166 163 158 153 151 155 162 169 159 154 151 150 154 155 156 156 156 162 159 161 161 156 151 148 145 144 143 144 144 141 141 140 135 132 125 120 102 99 98 102
88 47 102 115 163 194 173 178 228 208 247 190 177 178 167 141 112 103 264 255 94 169 210 199 222 215 207 215 182 169 181 223 245 250 226 198 208 206 209 206 184 181 151 116 132 160 149 134 126 145 161 172 172 155 156 153 155 155 155 158 156 160 166 166 161 148 131 132 135 134 130 134 136 141 142 138 133 126 124 130 115 110 106 91 95 99
125 103 143 199 183 176 174 236 330 279 255 204 190 174 154 139 123 137 217 232 217 194 194 182 211 214 206 206 157 197 212 216 234 279 72 141 102 80 46 62 93 113 147 143 138 127 137 154 161 168 172 163 150 152 154 154 150 155 157 156 160 171 164 146 135 133 134 130 128 126 125 124 138 138 135 135 131 125 114 109 116 113 106 110 96 93
354 95 325 69 173 178 198 190 233 265 232 159 302 154 178 117 180 209 221 173 170 220 237 186 204 217 201 197 193 215 226 240 17 1 117 158 162 122 117 110 99 75 53 85 121 134 133 135 128 123 123 141 151 153 155 153 152 150 153 158 168 158 133 132 134 131 131 133 128 127 127 129 129 131 132 133 127 117 106 93 97 107 113 109 111 108
178 148 193 186 179 68 94 207 41 255 255 132 118 97 315 164 220 195 208 261 170 182 182 232 201 229 185 213 211 220 225 284 141 146 178 85 134 151 152 153 145 146 142 135 126 131 139 134 140 143 140 144 148 152 155 149 148 152 155 165 157 134 134 130 130 130 129 129 130 132 135 135 138 135 134 125 121 119 117 119 108 107 110 120 117 115
178 157 204 211 169 154 160 187 212 204 120 165 137 183 200 212 189 163 147 229 222 185 196 194 229 218 203 202 211 220 200 160 243 146 111 130 102 124 135 132 132 127 121 99 124 144 137 126 125 128 133 141 147 152 157 156 152 157 160 160 137 134 127 127 126 127 129 132 134 135 136 138 131 125 117 122 120 116 124 122 116 108 118 127 127 125
206 200 165 175 205 151 197 216 224 197 176 196 153 151 193 203 190 186 173 198 200 239 191 181 221 226 203 209 210 177 176 213 192 183 179 192 177 167 170 169 167 160 153 149 147 145 140 145 145 136 132 139 144 149 153 158 153 155 160 152 142 143 139 134 134 135 138 141 144 141 143 130 123 117 110 116 125 131 131 127 132 119 119 122 121 120
229 193 96 113 230 258 281 235 84 80 152 230 254 194 208 213 209 143 182 207 238 220 170 192 214 210 204 192 161 207 205 184 164 185 197 161 168 172 127 133 119 117 117 117 121 124 126 117 122 133 135 132 139 142 148 150 158 161 161 140 145 139 138 138 139 141 144 144 145 149 145 127 112 99 98 98 97 113 129 142 141 132 128 120 120 121
258 125 130 182 235 159 241 233 171 205 209 205 216 233 287 278 223 197 214 211 237 209 211 255 215 202 192 178 189 190 188 165 172 179 172 165 173 177 173 163 163 158 159 155 152 133 132 139 138 147 148 149 155 144 141 138 128 126 130 148 141 139 138 141 143 142 146 150 148 146 143 135 134 128 111 102 98 96 108 121 124 125 126 126 134 144
266 180 166 204 175 188 243 217 227 236 192 215 188 184 237 242 225 214 227 240 183 146 178 216 141 167 152 182 190 153 162 171 164 177 179 186 179 175 174 171 160 152 148 139 142 144 138 150 153 154 157 159 158 143 133 128 121 128 135 136 140 139 141 147 156 155 156 153 152 149 149 141 134 132 132 130 134 133 119 108 121 133 146 154 162 154
156 132 209 181 204 254 296 21 50 80 128 237 229 238 215 198 195 210 205 161 143 116 99 45 48 193 184 188 151 145 152 191 190 177 173 171 173 176 178 166 163 157 150 150 166 162 165 160 156 162 160 158 149 141 134 128 125 135 142 145 147 152 151 153 149 145 145 148 142 146 146 141 144 147 142 137 117 116 151 148 149 151 175 204 172 163
111 196 167 87 213 236 225 224 124 206 250 244 224 217 220 214 185 164 122 143 149 143 151 121 58 42 86 127 164 167 171 179 181 169 175 177 175 165 154 155 158 151 153 149 135 154 148 163 161 163 163 150 146 143 141 139 139 143 145 147 155 156 155 152 147 148 155 157 155 150 146 147 148 149 147 145 143 131 130 199 167 165 151 195 203 181
177 184 144 189 201 230 234 199 187 215 254 222 205 193 169 165 157 166 183 177 191 182 167 135 119 67 61 38 104 158 167 164 166 147 142 150 161 157 156 154 157 159 159 156 149 160 168 164 163 157 158 156 150 153 149 149 151 152 155 156 163 165 160 154 152 156 158 162 170 167 160 156 153 158 150 151 149 151 144 138 144 140 140 152 141 130